EA5ILC Weather Reports


Display with metric or nautical units.
time (UTC)temp
F
wind
direction
speed
MPH
gust
MPH
rain 1hr
in
rain 24hr
in
rain mn
in
humidity
%
barometer
mb
20260510172532 71 172 3.0 7.0 0.00 0.00 0.00 66 1014.3
20260510171530 72 174 3.0 7.0 0.00 0.00 0.00 66 1014.3
20260510170527 72 157 3.0 7.0 0.00 0.00 0.00 66 1014.1
20260510165524 73 201 3.0 8.0 0.00 0.00 0.00 64 1014.3
20260510164522 74 169 3.0 6.0 0.00 0.00 0.00 63 1014.4
20260510163519 73 157 3.0 7.0 0.00 0.00 0.00 64 1014.4
20260510162517 74 211 2.0 4.0 0.00 0.00 0.00 63 1014.6
20260510161634 75 173 3.0 7.0 0.00 0.00 0.00 62 1014.4
20260510160612 74 220 3.0 7.0 0.00 0.00 0.00 63 1014.5
20260510155609 74 207 3.0 6.0 0.00 0.00 0.00 63 1014.5
20260510154607 74 201 2.0 7.0 0.00 0.00 0.00 65 1014.6
20260510153644 73 229 4.0 8.0 0.00 0.00 0.00 66 1014.8
20260510152601 73 187 2.0 6.0 0.00 0.00 0.00 68 1014.8
20260510151559 74 264 3.0 11.0 0.00 0.00 0.00 65 1014.8
20260510150556 74 163 3.0 9.0 0.00 0.00 0.00 66 1014.7
20260510145554 74 149 3.0 7.0 0.00 0.00 0.00 67 1014.9
20260510144611 76 183 1.0 4.0 0.00 0.00 0.00 64 1015.0
20260510143548 75 198 2.0 6.0 0.00 0.00 0.00 66 1015.0
20260510142546 75 235 2.0 4.0 0.00 0.00 0.00 66 1015.0
20260510141543 76 210 2.0 4.0 0.00 0.00 0.00 63 1015.2
20260510135546 76 179 2.0 4.0 0.00 0.00 0.00 64 1015.5
20260510134535 74 266 2.0 4.0 0.00 0.00 0.00 65 1015.6
20260510133533 76 163 2.0 4.0 0.00 0.00 0.00 63 1015.6
20260510132532 75 136 2.0 6.0 0.00 0.00 0.00 64 1015.8
20260510131527 75 206 2.0 6.0 0.00 0.00 0.00 62 1015.9
20260510130536 74 226 3.0 7.0 0.00 0.00 0.00 64 1016.0
20260510125602 73 227 2.0 7.0 0.00 0.00 0.00 63 1016.0
20260510124520 73 191 2.0 4.0 0.00 0.00 0.00 62 1016.2
20260510123517 72 177 3.0 7.0 0.00 0.00 0.00 66 1016.3
20260510122534 73 187 3.0 8.0 0.00 0.01 0.00 64 1016.3
20260510121612 72 180 3.0 7.0 0.00 0.01 0.00 63 1016.3
20260510120609 72 156 4.0 8.0 0.00 0.02 0.00 63 1016.5
20260510115607 73 158 3.0 8.0 0.00 0.04 0.00 64 1016.5
20260510114645 72 170 3.0 6.0 0.00 0.05 0.00 67 1016.5
20260510113601 74 175 3.0 6.0 0.00 0.05 0.00 66 1016.5
20260510112559 75 214 3.0 7.0 0.00 0.06 0.00 63 1016.4
20260510111556 75 171 3.0 7.0 0.00 0.07 0.00 60 1016.5
20260510110554 75 204 3.0 8.0 0.00 0.09 0.00 59 1016.4
20260510105551 74 257 3.0 7.0 0.00 0.11 0.00 55 1016.5
20260510104548 73 269 1.0 4.0 0.00 0.13 0.00 53 1016.5
20260510103546 74 236 1.0 4.0 0.00 0.15 0.00 53 1016.6
20260510102543 73 255 1.0 2.0 0.00 0.19 0.00 55 1016.7
20260510101621 72 244 2.0 6.0 0.00 0.22 0.00 53 1016.7
20260510100538 72 221 0.0 2.0 0.00 0.26 0.00 55 1016.9
20260510095536 72 246 2.0 4.0 0.00 0.35 0.00 57 1017.2
20260510094533 71 220 1.0 4.0 0.00 0.40 0.00 58 1017.3
20260510093530 72 175 1.0 4.0 0.00 0.43 0.00 60 1017.2
20260510092528 71 246 1.0 4.0 0.00 0.45 0.00 58 1017.1
20260510091525 71 175 1.0 4.0 0.00 0.51 0.00 60 1017.0
20260510090523 70 171 1.0 4.0 0.00 0.56 0.00 60 1017.0
20260510085525 70 198 1.0 2.0 0.00 0.64 0.00 62 1017.0
20260510084537 69 255 0.0 4.0 0.00 0.67 0.00 63 1017.1
20260510083515 68 260 1.0 2.0 0.00 0.69 0.00 65 1017.1
20260510082613 69 0.0 2.0 0.00 0.69 0.00 65 1017.1
20260510081610 67 180 0.0 2.0 0.00 0.69 0.00 66 1017.1
20260510080607 66 248 0.0 4.0 0.00 0.69 0.00 68 1017.2
20260510075604 66 259 1.0 2.0 0.00 0.69 0.00 70 1017.1
20260510074602 65 294 1.0 2.0 0.00 0.69 0.00 71 1017.2
20260510073559 65 13 1.0 2.0 0.00 0.71 0.00 71 1017.1
20260510072556 64 0.0 0.0 0.00 0.74 0.00 75 1017.0
20260510071554 64 0.0 0.0 0.00 0.85 0.00 79 1016.7
20260510070551 62 0.0 2.0 0.00 0.87 0.00 83 1017.2
20260510065549 60 0.0 0.0 0.00 0.87 0.00 89 1017.2
20260510064546 59 0.0 0.0 0.00 0.94 0.00 90 1017.1
20260510063543 58 0.0 0.0 0.00 1.15 0.00 90 1016.9
20260510062541 58 0.0 0.0 0.00 1.17 0.00 90 1016.9
20260510061538 58 0.0 0.0 0.00 1.17 0.00 91 1016.8
20260510060536 58 0 0.0 4.0 0.00 1.18 0.00 92 1016.8
20260510055553 57 23 0.0 2.0 0.00 1.23 0.00 93 1016.7
20260510054530 57 20 1.0 4.0 0.00 1.28 0.00 93 1016.6
20260510053528 57 19 2.0 4.0 0.00 1.28 0.00 93 1016.7
20260510052525 57 17 1.0 4.0 0.00 1.28 0.00 92 1016.6
20260510051522 57 15 2.0 4.0 0.00 1.28 0.00 92 1016.6
20260510050520 57 0.0 0.0 0.00 1.28 0.00 91 1016.5
20260510045517 57 0.0 0.0 0.00 1.28 0.00 91 1016.6
20260510044514 57 0.0 0.0 0.00 1.28 0.00 91 1016.7
20260510043612 57 0.0 0.0 0.00 1.28 0.00 90 1016.6
20260510042609 57 0.0 0.0 0.00 1.28 0.00 90 1016.5
20260510041607 57 0.0 0.0 0.00 1.28 0.00 91 1016.5
20260510040624 57 0.0 0.0 0.00 1.28 0.00 92 1016.4
20260510035602 56 0.0 0.0 0.00 1.28 0.00 92 1016.4
20260510034559 56 135 0.0 2.0 0.00 1.28 0.00 93 1016.2
20260510033557 56 90 0.0 2.0 0.00 1.28 0.00 93 1016.2
20260510032554 56 90 0.0 2.0 0.00 1.28 0.00 93 1016.1
20260510031551 55 0.0 0.0 0.00 1.28 0.00 93 1016.1
20260510030549 56 0.0 0.0 0.00 1.28 0.00 94 1015.9
20260510025546 56 0.0 0.0 0.00 1.28 0.00 94 1015.9
20260510024604 56 0.0 0.0 0.00 1.28 0.00 94 1015.9
20260510023601 56 0.0 0.0 0.00 1.28 0.00 94 1015.8
20260510022538 56 0.0 0.0 0.00 1.28 0.00 94 1015.9
20260510021535 56 0.0 0.0 0.00 1.28 0.00 94 1016.0
20260510020633 56 0.0 0.0 0.00 1.28 0.00 94 1016.0
20260510015530 55 0.0 0.0 0.00 1.28 0.00 94 1015.9
20260510014528 56 0.0 0.0 0.00 1.28 0.00 95 1015.9
20260510013525 56 0.0 0.0 0.00 1.28 0.00 95 1016.0
20260510012523 56 0.0 0.0 0.00 1.28 0.00 96 1016.2
20260510011520 56 0.0 0.0 0.00 1.28 0.00 96 1016.1
20260510010517 56 0.0 0.0 0.00 1.28 0.00 96 1016.0
20260510005515 56 0.0 0.0 0.00 1.28 0.00 97 1016.1
20260510004612 56 0.0 0.0 0.00 1.28 0.00 97 1016.3
20260510003609 57 0.0 0.0 0.00 1.28 0.00 97 1016.4
20260510002607 57 0.0 0.0 0.00 1.28 0.00 97 1016.4
20260510001605 57 0.0 0.0 0.00 1.28 0.00 97 1016.5
20260510000601 56 0.0 0.0 0.00 1.28 0.00 97 1016.6
20260509235559 57 0.0 0.0 0.00 1.28 0.00 97 1016.8
20260509234557 57 0.0 0.0 0.00 1.28 0.00 97 1016.9
20260509233614 57 0.0 0.0 0.00 1.28 0.00 97 1017.0
20260509232551 58 0.0 0.0 0.00 1.28 0.00 97 1017.1
20260509231609 58 0.0 0.0 0.00 1.28 0.00 97 1017.2
20260509230546 58 0.0 0.0 0.00 1.28 0.00 97 1017.1
20260509225544 57 0.0 0.0 0.00 1.28 0.00 96 1017.4
20260509224541 58 0.0 0.0 0.00 1.28 0.00 96 1017.0
20260509223538 58 0.0 0.0 0.00 1.28 0.00 96 1017.1
20260509222535 58 0.0 0.0 0.00 1.28 0.00 95 1017.1
20260509221533 58 0.0 0.0 0.00 1.28 0.00 95 1017.2
20260509220530 58 0.0 0.0 0.00 1.28 0.00 95 1017.2
20260509215548 59 0.0 0.0 0.00 1.28 1.28 96 1017.2
20260509214525 58 0.0 0.0 0.00 1.28 1.28 96 1017.0
20260509213522 58 0.0 0.0 0.00 1.28 1.28 95 1017.0
20260509212520 58 0.0 0.0 0.00 1.28 1.28 95 1017.0
20260509211517 59 0.0 0.0 0.00 1.28 1.28 95 1017.1
20260509210515 59 0.0 0.0 0.00 1.28 1.28 94 1017.0
20260509205612 59 0.0 0.0 0.00 1.28 1.28 94 1017.2
20260509204610 60 0.0 0.0 0.00 1.28 1.28 93 1017.0
20260509203607 60 0.0 0.0 0.00 1.28 1.28 93 1017.0
20260509202604 60 0.0 0.0 0.00 1.28 1.28 92 1016.9
20260509201602 60 0.0 2.0 0.00 1.28 1.28 92 1016.8
20260509200559 60 113 0.0 2.0 0.00 1.28 1.28 92 1016.7
20260509195556 60 132 1.0 2.0 0.00 1.28 1.28 91 1016.5
20260509194554 60 120 1.0 4.0 0.00 1.28 1.28 90 1016.3
20260509193551 60 103 2.0 4.0 0.00 1.28 1.28 89 1016.3
20260509192549 60 135 0.0 2.0 0.00 1.28 1.28 88 1016.1
20260509191546 60 0.0 2.0 0.00 1.28 1.28 88 1016.0
20260509190543 60 0.0 0.0 0.00 1.28 1.28 89 1016.0
20260509185541 60 0.0 0.0 0.00 1.28 1.28 89 1015.8
20260509184538 60 0.0 2.0 0.00 1.28 1.28 89 1015.6
20260509183535 60 173 1.0 4.0 0.00 1.28 1.28 90 1015.6
20260509182533 60 191 2.0 4.0 0.00 1.28 1.28 90 1015.6
20260509181530 60 196 2.0 6.0 0.00 1.28 1.28 90 1015.4
20260509180528 60 147 3.0 6.0 0.00 1.28 1.28 90 1015.1
20260509175525 61 152 2.0 4.0 0.00 1.28 1.28 89 1015.0
20260509174522 61 182 1.0 4.0 0.00 1.28 1.28 89 1015.1
20260509173540 61 183 2.0 4.0 0.00 1.28 1.28 89 1014.9